{"data":{"norad_id":63353,"intl_designator":"2025-061C","name":"LEMUR-2-KREMPEL-BRO2","alt_names":[],"object_type":"PAYLOAD","status":"ACTIVE","operator":null,"country":"US","launch_date":"2025-03-26","launch_site_code":"RLLB","launch_vehicle":null,"mission":null,"orbit_class":"UNKNOWN","rcs_meters":null,"size_class":null,"mass_kg":null,"dimensions":null,"purposes":["earth_obs"],"wikipedia_slug":null,"has_3d_model":false,"image_url":null,"decayed_at":null,"tle_current":{"epoch":"2026-05-24T21:26:13.811424Z","epoch_age_seconds":80964,"freshness":"FRESH","line1":"1 63353U 25061C   26144.89321541  .00003509  00000+0  19732-3 0  9995","line2":"2 63353  97.5678 121.0221 0018757 342.9199  17.1399 15.13805081 64088","mean_motion":15.13805081,"eccentricity":0.0018757,"inclination_deg":97.5678,"raan_deg":121.0221,"arg_perigee_deg":342.9199,"mean_anomaly_deg":17.1399,"bstar":0.00019732,"rev_number":6408,"period_min":95.124532086308,"perigee_km":511.6611379623,"apogee_km":537.55609787336,"semimajor_km":6902.7456179178,"source":"CELESTRAK","updated_at":"2026-05-25T13:38:13.540849Z"}}}